Weather History for KAWM - October, 2012

Change the Weather History Date:

Friday, October 5, 2012

  Actual Average Record
Temperature  
Mean Temperature 65 °F -  
Max Temperature 84 °F 80 °F 90 °F (1981)
Min Temperature 46 °F 54 °F 32 °F (1980)
Growing Degree Days 15 (Base 50)    
Moisture  
Dew Point 55 °F    
Average Humidity 80    
Maximum Humidity 100    
Minimum Humidity 49    
Precipitation  
Precipitation 0.29 in - - ()
Sea Level Pressure  
Sea Level Pressure 30.07 in    
Wind  
Wind Speed 10 mph (SSE)    
Max Wind Speed 24 mph    
Max Gust Speed 37 mph    
Visibility 9 miles    
Events Rain , Thunderstorm    
Averages and records for this station are not official NWS values.
T = Trace of Precipitation, MM = Missing Value Source: NWS Daily Summary

Daily Weather History Graph

Daily Weather History Graph

Search for Another Location

Airport or City:

Trip Planner

Search our weather history database for the weather conditions in past years. The results will help you decide how hot, cold, wet, or windy it might be!

Date:

Astronomy

Oct. 05, 2012 Rise Set
Actual Time 6:59 AM CDT 6:38 PM CDT
Civil Twilight 6:33 AM CDT 7:03 PM CDT
Nautical Twilight 6:04 AM CDT 7:33 PM CDT
Astronomical Twilight 5:35 AM CDT 8:02 PM CDT
Moon 10:12 PM CDT (10/5) 11:56 AM CDT (10/5)
Length of Visible Light 12h 29m
Length of Day
11h 39m
Waning Gibbous, 74% of the Moon is Illuminated
Oct 5
Waning Gibbous
Oct 8
Last Quarter
Oct 15
New
Oct 21
First Quarter
Oct 29
Full

Hourly Weather History & Observations

Time (CDT) Temp. Windchill Dew Point Humidity Pressure Visibility Wind Dir Wind Speed Gust Speed Precip Events Conditions
12:53 AM 61.0 °F - 57.9 °F 90% 30.15 in 10.0 mi South 3.5 mph - N/A   Clear
1:53 AM 61.0 °F - 57.9 °F 90% 30.15 in 10.0 mi South 3.5 mph - N/A   Clear
3:53 AM 61.0 °F - 57.9 °F 90% 30.12 in 10.0 mi SSE 3.5 mph - N/A   Clear
4:53 AM 61.0 °F - 59.0 °F 93% 30.12 in 9.0 mi South 3.5 mph - N/A   Clear
5:53 AM 61.0 °F - 59.0 °F 93% 30.12 in 8.0 mi South 3.5 mph - N/A   Clear
6:53 AM 59.0 °F - 57.0 °F 93% 30.09 in 6.0 mi SSE 12.7 mph - N/A   Clear
7:53 AM 64.0 °F - 61.0 °F 90% 30.09 in 9.0 mi South 8.1 mph - N/A   Clear
8:53 AM 68.0 °F - 62.1 °F 81% 30.12 in 10.0 mi South 5.8 mph - N/A   Clear
9:53 AM 73.0 °F - 62.1 °F 68% 30.12 in 10.0 mi South 6.9 mph - N/A   Scattered Clouds
10:53 AM 77.0 °F - 62.1 °F 60% 30.09 in 10.0 mi South 12.7 mph - N/A   Clear
11:53 AM 79.0 °F - 61.0 °F 54% 30.09 in 10.0 mi SSW 12.7 mph 23.0 mph N/A   Scattered Clouds
12:53 PM 80.1 °F - 61.0 °F 52% 30.06 in 10.0 mi SSW 10.4 mph 19.6 mph N/A   Clear
1:53 PM 81.0 °F - 62.1 °F 52% 30.02 in 10.0 mi South 9.2 mph 19.6 mph N/A   Scattered Clouds
2:53 PM 81.0 °F - 62.1 °F 52% 29.98 in 10.0 mi South 9.2 mph - N/A   Mostly Cloudy
3:53 PM 82.0 °F - 61.0 °F 49% 29.95 in 10.0 mi SSW 9.2 mph 20.7 mph N/A   Partly Cloudy
4:53 PM 82.0 °F - 61.0 °F 49% 29.94 in 10.0 mi SSW 12.7 mph 20.7 mph N/A   Partly Cloudy
5:53 PM 79.0 °F - 61.0 °F 54% 29.92 in 10.0 mi South 8.1 mph - N/A   Mostly Cloudy
6:53 PM 77.0 °F - 62.1 °F 60% 29.93 in 10.0 mi Calm Calm - 0.00 in Rain Light Rain
7:20 PM 57.2 °F - 55.4 °F 94% 30.01 in 8.0 mi North 24.2 mph 36.8 mph 0.06 in Rain , Thunderstorm Thunderstorms and Rain
7:34 PM 55.4 °F - 55.4 °F 100% 30.03 in 10.0 mi North 19.6 mph 31.1 mph 0.07 in Rain , Thunderstorm Light Rain
7:40 PM 55.4 °F - 55.4 °F 100% 30.03 in 10.0 mi North 24.2 mph 31.1 mph 0.07 in Rain Light Rain
7:53 PM 55.0 °F - 53.1 °F 93% 30.04 in 7.0 mi North 16.1 mph 31.1 mph 0.11 in Rain , Thunderstorm Thunderstorms and Rain
8:10 PM 53.6 °F - 53.6 °F 100% 30.05 in 4.0 mi North 17.3 mph 25.3 mph 0.16 in Rain , Thunderstorm Heavy Thunderstorms and Rain
8:51 PM 51.8 °F - 50.0 °F 94% 30.08 in 10.0 mi North 16.1 mph 23.0 mph 0.18 in   Overcast
8:53 PM 52.0 °F - 50.0 °F 93% 30.08 in 10.0 mi North 15.0 mph - 0.18 in   Overcast
9:19 PM 51.8 °F - 48.2 °F 88% 30.10 in 10.0 mi North 18.4 mph 29.9 mph N/A   Overcast
9:53 PM 50.0 °F - 46.0 °F 86% 30.11 in - NNE 20.7 mph 28.8 mph N/A   Unknown
10:23 PM 48.2 °F - 44.6 °F 87% 30.12 in 10.0 mi North 20.7 mph 26.5 mph N/A   Overcast
10:53 PM 48.0 °F - 45.0 °F 89% 30.13 in 10.0 mi North 17.3 mph 24.2 mph N/A   Overcast
11:07 PM 48.2 °F - 44.6 °F 87% 30.13 in 10.0 mi North 15.0 mph 29.9 mph N/A   Overcast
11:34 PM 48.2 °F - 44.6 °F 87% 30.13 in 9.0 mi North 20.7 mph 27.6 mph N/A   Overcast
11:43 PM 48.2 °F - 44.6 °F 87% 30.14 in 7.0 mi North 13.8 mph 23.0 mph 0.00 in Rain Light Rain
11:53 PM 46.0 °F 38.0 °F 43.0 °F 89% 30.13 in 8.0 mi NNE 21.9 mph 28.8 mph 0.00 in Rain Light Rain